x

Portland 12 Nm Southeast Of Portland,me (44007) Wave Buoy

6:50 - Mon 30th May 2016 All times are EDT. -4 hours from GMT.

  • Sig Wave height 2.0ft
  • Swell Direction
  • Peak Period 5s
  • Average Period 4s
  • Wind
    11mph, 13mph gusts
  • Sea Temp 54°f
  • Air Temp 56°f
  • Sea Pressure 1010.3mb
  • Portland 12 Nm Southeast Of Portland,me
  • Portland 12 Nm Southeast Of Portland,me

More Historic Weather Station data

Upgrade to MSW Pro to gain access to the past 30 days of data for over 8000 Wavebouys and Weather Stations around the globe.

Join Pro

Comparision Forecast

View Surf forecast
   
lun. 05/30 6:50 2ft 5s 4s 11 13 mph 1010.3mb 54f 56f
5:50 2.5ft 6s 4s 11 13 mph 1010.8mb 54f 55f
4:50 2ft 5s 4s 13 16 mph 1011.2mb 54f 55f
3:50 2ft 5s 4s 13 16 mph 1011.8mb 54f 54f
2:50 2ft 5s 5s 13 16 mph 1012.5mb 53f 54f
1:50 2ft 6s 5s 11 13 mph 1013.4mb 53f 53f
12:50 2ft 6s 5s 9 11 mph 1014.2mb 53f 53f
11:50 2.5ft 6s 5s 11 13 mph 1014.9mb 53f 53f
10:50 2.5ft 6s 5s 9 11 mph 1015.2mb 53f 53f
9:50 2.5ft 6s 5s 7 9 mph 1015.9mb 52f 52f
8:50 3ft 6s 5s 7 9 mph 1016.2mb 52f 52f
7:50 3ft 6s 5s 4
mph
1016.3mb 52f 51f
6:50 3.5ft 6s 5s 2 4 mph 1016.8mb 52f 51f
5:50 3.5ft 6s 5s 2 4 mph 1017.3mb 52f 51f
4:50 3.5ft 6s 5s  -  2 mph 1017.3mb 52f 51f
3:50 3.5ft 6s 5s  -  2 mph 1017.6mb 53f 51f
2:50 3.5ft 6s 5s 2 4 mph 1018.3mb 52f 50f
1:50 3.5ft 6s 5s 2
mph
1019.6mb 52f 51f
12:50 3.5ft 6s 5s 4
mph
1020.4mb 52f 51f
dim. 05/29 11:50 3.5ft 6s 5s 4 7 mph 1020.9mb 53f 51f
10:50 3ft 6s 5s 7 9 mph 1021.5mb 52f 51f
9:50 3.5ft 6s 5s 9
mph
1022mb 53f 51f
8:50 3.5ft 6s 5s 9 11 mph 1022mb 53f 51f
6:50 4ft 6s 5s 13 18 mph 1022.1mb 53f 51f
5:50 4ft 6s 5s 16 18 mph 1022.4mb 53f 51f
4:50 4.5ft 6s 5s 16 20 mph 1022.7mb 53f 51f
3:50 4.5ft 6s 5s 16 20 mph 1023.2mb 53f 51f
2:50 4ft 6s 4s 16 20 mph 1023.9mb 53f 51f
1:50 4ft 6s 5s 16 20 mph 1024.2mb 53f 52f
12:50 4ft 5s 5s 13 18 mph 1024.4mb 53f 53f
11:50 4.5ft 6s 4s 16 20 mph 1024.4mb 54f 52f
10:50 3.5ft 6s 4s 16 18 mph 1025.2mb 52f 52f
9:50 3.5ft 5s 4s 13 16 mph 1024.8mb 53f 53f
8:50 3ft 5s 4s 13 16 mph 1024.5mb 54f 53f
7:50 2.5ft 5s 4s 13 16 mph 1024.1mb 53f 53f
6:50 3ft 5s 4s 16 18 mph 1023.7mb 53f 53f
5:50 3.5ft 5s 4s 16 20 mph 1023.2mb 53f 54f
4:50 3.5ft 4s 4s 18 22 mph 1022.3mb 53f 54f
3:50 3.5ft 4s 4s 18 20 mph 1022mb 53f 54f
2:50 3ft 4s 4s 20 22 mph 1021.8mb 53f 54f
1:50 2.5ft 4s 4s 18 22 mph 1021.6mb 53f 55f
12:50 2ft 3s 4s 7 9 mph 1021.4mb 54f 55f
sam. 05/28 11:50 1.6ft 3s 4s 13 16 mph 1020.8mb 54f 55f
10:50 2ft 3s 4s 7 9 mph 1020.5mb 54f 55f
9:50 2ft 3s 4s 11 13 mph 1020.1mb 54f 56f
8:50 1.6ft 5s 4s 13 16 mph 1019.3mb 55f 57f
7:50 1.6ft 5s 5s 16 18 mph 1018.6mb 55f 60f
6:50 1.6ft 5s 5s 4 9 mph 1017.8mb 56f 63f
5:50 1.6ft 5s 5s 2 4 mph 1017.4mb 55f 60f
4:50 1.6ft 7s 5s 4 7 mph 1017.1mb 55f 59f
3:50 1.6ft 7s 5s 9
mph
1017.1mb 55f 59f
2:50 1.6ft 5s 5s 9 11 mph 1016.9mb 56f 59f
1:50 2ft 5s 5s 4
mph
1017.4mb 56f 58f
12:50 1.6ft 5s 5s 9
mph
1017.5mb 56f 58f
11:50 2ft 5s 5s 9
mph
1018mb 55f 56f
10:50 2ft 5s 5s 7 9 mph 1018.1mb 55f 56f
9:50 2ft 5s 5s 4
mph
1017.9mb 55f 55f
8:50 2.5ft 5s 5s 2
mph
1017.9mb 55f 54f
7:50 2.5ft 5s 5s 2
mph
1017.6mb 54f 53f
6:50 2.5ft 5s 5s 4 7 mph 1017.4mb 54f 51f
5:50 2.5ft 5s 5s  -  2 mph 1016.8mb 54f 51f
4:50 2ft 6s 5s 2 4 mph 1016.2mb 54f 51f
3:50 2ft 6s 5s 7
mph
1016mb 54f 51f
2:50 1.6ft 7s 5s 7
mph
1016.4mb 54f 51f
1:50 1.6ft 4s 5s 2
mph
1016.2mb 54f 51f
12:50 2ft 5s 4s  -  2 mph 1016.5mb 54f 51f
ven. 05/27 11:50 2ft 4s 5s 4
mph
1016.8mb 54f 51f
10:50 2ft 4s 5s  -  2 mph 1016.9mb 54f 51f
9:50 2ft 5s 4s 4
mph
1016.7mb 54f 52f
8:50 2ft 5s 5s 4 7 mph 1016.9mb 54f 52f
7:50 2ft 5s 5s 7 9 mph 1016.7mb 54f 53f
6:50 2ft 4s 4s 7
mph
1016.8mb 54f 53f
5:50 2ft 4s 4s 4 7 mph 1017.1mb 54f 53f
4:50 2.5ft 5s 4s 4
mph
1017.6mb 54f 54f
3:50 2.5ft 5s 4s 4 7 mph 1017.8mb 54f 54f
2:50 2.5ft 5s 4s 9 11 mph 1018.7mb 53f 53f
1:50 2.5ft 4s 4s 11 13 mph 1019.4mb 53f 53f
12:50 2.5ft 4s 4s 13
mph
1020.1mb 54f 53f
11:50 2.5ft 8s 4s 11 13 mph 1020.4mb 53f 53f
10:50 2.5ft 4s 4s 11 13 mph 1020.9mb 53f 53f
9:50 3ft 4s 4s 13 16 mph 1020.9mb 53f 53f
8:50 3ft 3s 4s 16 18 mph 1020.7mb 52f 53f
7:50 2.5ft 3s 4s 16 18 mph 1020.7mb 53f 53f
6:50 2.5ft 4s 4s 16 18 mph 1020.9mb 52f 53f
5:50 2.5ft 8s 4s 16 18 mph 1020.8mb 52f 54f
4:50 2.5ft 8s 4s 13 16 mph 1020.9mb 52f 54f
3:50 2ft 7s 5s 11
mph
1020.8mb 52f 54f
2:50 2ft 7s 5s 9 11 mph 1021mb 53f 54f
1:50 2ft 8s 5s 9
mph
1020.7mb 53f 56f
12:50 2ft 7s 5s 7 9 mph 1021mb 53f 55f